This is the latest recevied weather packets stored in our database for station/object KC4JES. If no packets are shown the sender has not sent any weather packets the latest 10 day(s).
| Time | Temp. | Humidity | Pressure | Rain* | Wind** | Luminosity | Snow |
|---|---|---|---|---|---|---|---|
| 1778186617 | 32.78° C | 50% | 1012.9 hPa | 0 mm | - | 559 W/m² | - |
| 1778186315 | 32.22° C | 54% | 1012.9 hPa | 0 mm | - | 581 W/m² | - |
| 1778186013 | 31.11° C | 54% | 1012.9 hPa | 0 mm | - | 663 W/m² | - |
| 1778185709 | 31.11° C | 53% | 1012.8 hPa | 0 mm | - | 234 W/m² | - |
| 1778185405 | 30.56° C | 54% | 1013.1 hPa | 0 mm | - | 244 W/m² | - |
| 1778185101 | 30.56° C | 57% | 1013.1 hPa | 0 mm | - | 163 W/m² | - |
| 1778184797 | 30.56° C | 56% | 1013.6 hPa | 0 mm | - | 228 W/m² | - |
| 1778184494 | 30.56° C | 56% | 1013.6 hPa | 0 mm | - | 339 W/m² | - |
| 1778184189 | 30.56° C | 54% | 1013.7 hPa | 0 mm | - | 184 W/m² | - |
| 1778183885 | 31.11° C | 50% | 1013.6 hPa | 0 mm | - | 233 W/m² | - |
| 1778183583 | 31.67° C | 51% | 1013.7 hPa | 0 mm | - | 470 W/m² | - |
| 1778183281 | 31.67° C | 49% | 1013.9 hPa | 0 mm | - | 268 W/m² | - |
| 1778182976 | 31.67° C | 49% | 1014 hPa | 0 mm | - | 483 W/m² | - |
| 1778182673 | 31.67° C | 48% | 1013.9 hPa | 0 mm | - | 285 W/m² | - |
| 1778182370 | 31.67° C | 47% | 1014 hPa | 0 mm | - | 317 W/m² | - |
| 1778182066 | 32.22° C | 46% | 1014.1 hPa | 0 mm | - | 265 W/m² | - |
| 1778181763 | 32.22° C | 47% | 1014 hPa | 0 mm | - | 482 W/m² | - |
| 1778181459 | 32.78° C | 44% | 1013.9 hPa | 0 mm | - | 676 W/m² | - |
| 1778181156 | 32.78° C | 44% | 1013.5 hPa | 0 mm | - | 412 W/m² | - |
| 1778180852 | 32.78° C | 44% | 1013.9 hPa | 0 mm | - | 648 W/m² | - |
| 1778180551 | 32.78° C | 45% | 1013.9 hPa | 0 mm | - | 485 W/m² | - |
| 1778180249 | 32.78° C | 43% | 1013.9 hPa | 0 mm | - | 471 W/m² | - |
| 1778179946 | 33.33° C | 44% | 1014 hPa | 0 mm | - | 316 W/m² | - |
| 1778179644 | 33.89° C | 46% | 1014.1 hPa | 0 mm | - | 541 W/m² | - |
| 1778179341 | 33.33° C | 51% | 1014.3 hPa | 0 mm | - | 574 W/m² | - |
* Rain latest hour (hover to see other rain measurements)
** Current wind speed in m/s (hover to see current wind gust speed)